Location: Newark
(25.6108°S, 54.5803°W)
Time: 21:23:17
(UTC+00:00)

Courier 1B - Pass Details

Date: 05 November 2020
Orbit: 962 x 1209 km, 28.3° (Epoch: 24 November)

Event Time Altitude Azimuth Distance (km) Brightness Sun altitude
Rises 03:23:53 0° 257° (WSW) 3,971 - -48.6°
Reaches altitude 10° 03:26:37 10° 257° (WSW) 3,043 - -48.6°
Maximum altitude 03:34:15 83° 344° (NNW) 1,199 - -48.5°
Drops below altitude 10° 03:42:08 10° 71° (ENE) 3,144 - -48.3°
Sets 03:45:00 0° 71° (ENE) 4,109 - -48.2°
